Regional Weather Roundup
Issued by NWS

Home | Current Version | Previous Version | Graphics & Text | Print | Product List | Glossary On
Versions: 1 2 3 4 5 6 7 8 9 10 11 12 13 14 15 16 17 18 19 20 21 22 23 24 25 26 27 28 29 30 31 32 33 34 35 36 37 38 39 40 41 42 43 44 45 46 47 48 49 50
000
ASUS43 KLMK 242310
RWRKY
KENTUCKY REGIONAL WEATHER ROUNDUP
NATIONAL WEATHER SERVICE LOUISVILLE KY
700 PM EDT MON APR 24 2017

NOTE "FAIR" INDICATES FEW OR NO CLOUDS BELOW 12,000 FEET
WITH NO SIGNIFICANT WEATHER AND/OR OBSTRUCTIONS TO VISIBILITY.

KYZ001>023-026-027-061>063-070>075-250000-
WESTERN AND SOUTH CENTRAL KENTUCKY

CITY           SKY/WX    TMP DP  RH WIND       PRES   REMARKS
PADUCAH        SUNNY     76  49  38 E5        29.74F
HENDERSON      SUNNY     75  44  33 CALM      29.76S
OWENSBORO      MOSUNNY   76  52  43 S6        29.74F
HOPKINSVILLE   PTSUNNY   70  54  55 SE3       29.76F
BOWLING GREEN  PTSUNNY   71  55  56 NE3       29.77F
GLASGOW        CLOUDY    66  55  66 CALM      29.77F
$$

KYZ024-025-028>034-038-045-046-053-250000-
NORTH CENTRAL KENTUCKY

CITY           SKY/WX    TMP DP  RH WIND       PRES   REMARKS
LOUISVILLE/SDF PTSUNNY   73  50  44 E12       29.76F
LOUISVILLE/LOU CLOUDY    73  51  46 E8        29.77S
FORT KNOX      CLOUDY    71  52  50 E8        29.75F
$$

KYZ035>037-039>044-047>052-055>060-089>105-250000-
NORTHEAST KENTUCKY

CITY           SKY/WX    TMP DP  RH WIND       PRES   REMARKS
LEXINGTON      PTSUNNY   65  50  58 E13       29.81R
COVINGTON      MOSUNNY   68  53  58 E17       29.80S
FRANKFORT      CLOUDY    67  51  56 E9        29.79R
$$

KYZ054-064>069-076>088-106>120-250000-
SOUTHEAST KENTUCKY

CITY           SKY/WX    TMP DP  RH WIND       PRES   REMARKS
JACKSON        PTSUNNY   63  53  70 MISG      29.80S
LONDON         PTSUNNY   64  52  64 N8        29.79R
SOMERSET       CLOUDY    64  52  63 CALM      29.79S
MIDDLESBORO    CLOUDY    67  55  65 CALM      29.77S
MONTICELLO     CLOUDY    66  55  67 N10       29.79F
$$





USA.gov is the U.S. government's official web portal to all federal, state and local government web resources and services.